Weather History for CYEG - March, 2013

Change the Weather History Date:

Saturday, March 2, 2013

  Actual Average Record
Temperature  
Mean Temperature 32 °F -  
Max Temperature 35 °F 33 °F 41 °F (2005)
Min Temperature 28 °F 13 °F -31 °F (2014)
Degree Days  
Heating Degree Days 34    
Moisture  
Dew Point 31 °F    
Average Humidity 93    
Maximum Humidity 100    
Minimum Humidity 83    
Precipitation  
Precipitation 0.03 in 0.02 in - ()
Sea Level Pressure  
Sea Level Pressure 30.06 in    
Wind  
Wind Speed 5 mph ()    
Max Wind Speed 23 mph    
Max Gust Speed 28 mph    
Visibility 8.7 miles    
Events Rain , Snow    
Averages and records for this station are not official NWS values.
T = Trace of Precipitation, MM = Missing Value Source: Averaged Metar Reports

Daily Weather History Graph

Daily Weather History Graph

Search for Another Location

Airport or City:

Trip Planner

Search our weather history database for the weather conditions in past years. The results will help you decide how hot, cold, wet, or windy it might be!

Date:

Astronomy

Mar. 02, 2013 Rise Set
Actual Time 7:18 AM MST 6:15 PM MST
Civil Twilight 6:43 AM MST 6:49 PM MST
Nautical Twilight 6:03 AM MST 7:30 PM MST
Astronomical Twilight 5:23 AM MST 8:10 PM MST
Moon No Moon Rise 8:59 AM MST (3/2)
Length of Visible Light 12h 06m
Length of Day
10h 56m
Waning Gibbous, 73% of the Moon is Illuminated
Mar 2
Waning Gibbous
Mar 4
Last Quarter
Mar 11
New
Mar 19
First Quarter
Mar 27
Full

Hourly Weather History & Observations

Time (MST) Temp. Windchill Dew Point Humidity Pressure Visibility Wind Dir Wind Speed Gust Speed Precip Events Conditions
12:00 AM 32.0 °F 27.5 °F 28.4 °F 87% 30.11 in 15.0 mi NNE 4.6 mph - N/A   Mostly Cloudy
1:00 AM 32.0 °F - 28.4 °F 87% 30.12 in 15.0 mi Calm Calm - N/A   Overcast
2:00 AM 32.0 °F 27.5 °F 28.4 °F 87% 30.12 in 15.0 mi SE 4.6 mph - N/A   Mostly Cloudy
3:00 AM 30.2 °F 25.4 °F 28.4 °F 93% 30.11 in 15.0 mi SE 4.6 mph - N/A   Mostly Cloudy
4:00 AM 32.0 °F 28.7 °F 28.4 °F 87% 30.11 in 15.0 mi ESE 3.5 mph - N/A   Mostly Cloudy
5:00 AM 29 °F - 27 °F 90% 30.14 in 15 mi Calm Calm - -   Overcast
5:00 AM 28.4 °F - 26.6 °F 93% 30.14 in 15.0 mi Calm Calm - N/A   Overcast
6:00 AM 30.2 °F 24.3 °F 28.4 °F 93% 30.14 in 15.0 mi SSW 5.8 mph - N/A   Overcast
6:55 AM 30.2 °F 25.4 °F 28.4 °F 93% 30.15 in 15.0 mi SW 4.6 mph - N/A Rain Light Freezing Rain
7:00 AM 30.2 °F 25.4 °F 28.4 °F 93% 30.15 in 15.0 mi WSW 4.6 mph - N/A Rain Light Freezing Rain
7:25 AM 30.2 °F - 28.4 °F 93% 30.15 in 12.0 mi Variable 2.3 mph - N/A Rain , Snow Light Freezing Rain
7:40 AM 32.0 °F - 30.2 °F 93% 30.14 in 12.0 mi NNW 2.3 mph - N/A   Mostly Cloudy
8:00 AM 32.0 °F 28.7 °F 30.2 °F 93% 30.14 in 12.0 mi North 3.5 mph - N/A   Mostly Cloudy
9:00 AM 32.0 °F - 30.2 °F 93% 30.13 in 15.0 mi Calm Calm - N/A   Mostly Cloudy
10:00 AM 32.0 °F 28.7 °F 30.2 °F 93% 30.12 in 15.0 mi SSW 3.5 mph - N/A   Mostly Cloudy
11:00 AM 34 °F - 31 °F 83% 30.12 in 15 mi SW 3.5 mph - -   Partly Cloudy
11:00 AM 33.8 °F 30.8 °F 30.2 °F 87% 30.12 in 15.0 mi SSW 3.5 mph - N/A   Overcast
12:00 PM 35.6 °F - 32.0 °F 87% 30.10 in 15.0 mi NW 2.3 mph - N/A   Overcast
1:00 PM 35.6 °F 32.8 °F 32.0 °F 87% 30.09 in 15.0 mi South 3.5 mph - N/A   Overcast
2:00 PM 35.6 °F - 32.0 °F 87% 30.07 in 15.0 mi South 2.3 mph - N/A   Overcast
2:33 PM 33.8 °F 30.8 °F 32.0 °F 93% 30.06 in 12.0 mi South 3.5 mph - N/A Rain Light Rain
3:00 PM 33.8 °F 30.8 °F 32.0 °F 93% 30.06 in 10.0 mi SSW 3.5 mph - N/A Rain Light Rain
3:22 PM 33.8 °F 29.6 °F 32.0 °F 93% 30.06 in 8.0 mi South 4.6 mph - N/A Rain , Snow Light Rain
3:47 PM 33.8 °F 28.6 °F 32.0 °F 93% 30.05 in 5.0 mi South 5.8 mph - N/A Snow Light Snow
4:00 PM 33.8 °F 29.6 °F 32.0 °F 93% 30.05 in 5.0 mi SE 4.6 mph - N/A Snow Light Snow
4:23 PM 33.8 °F 27.7 °F 32.0 °F 93% 30.04 in 5.0 mi ESE 6.9 mph - N/A Snow Light Snow
5:00 PM 33 °F - 32 °F 95% 30.03 in 5 mi ESE 6.9 mph - - Snow Light Snow
5:00 PM 33.8 °F 27.7 °F 32.0 °F 93% 30.03 in 5.0 mi ESE 6.9 mph - N/A Snow Light Snow
5:15 PM 33.8 °F 28.6 °F 32.0 °F 93% 30.02 in 4.0 mi ESE 5.8 mph - N/A Snow Light Snow
5:35 PM 33.8 °F 27.0 °F 32.0 °F 93% 30.02 in 2.5 mi East 8.1 mph - N/A Snow Light Snow
5:40 PM 33.8 °F 27.7 °F 32.0 °F 93% 30.01 in 1.0 mi East 6.9 mph - N/A Snow Light Snow
6:00 PM 32.0 °F 25.6 °F 32.0 °F 100% 30.01 in 1.0 mi East 6.9 mph - N/A Snow Light Snow
6:27 PM 32.0 °F 24.2 °F 32.0 °F 100% 29.99 in 1.5 mi ENE 9.2 mph - N/A Snow Light Snow
6:51 PM 32.0 °F 24.2 °F 32.0 °F 100% 29.99 in 1.0 mi East 9.2 mph - N/A Snow Light Snow
7:00 PM 32.0 °F 24.2 °F 32.0 °F 100% 29.99 in 1.0 mi ENE 9.2 mph - N/A Snow Light Snow
7:24 PM 32.0 °F 24.8 °F 32.0 °F 100% 29.99 in 1.2 mi ENE 8.1 mph - N/A Snow Light Snow
7:29 PM 32.0 °F 24.2 °F 32.0 °F 100% 29.99 in 1.0 mi ENE 9.2 mph - N/A Snow Light Snow
8:00 PM 32.0 °F 24.2 °F 32.0 °F 100% 29.98 in 1.0 mi ENE 9.2 mph - N/A Snow Light Snow
8:38 PM 32.0 °F 21.6 °F 32.0 °F 100% 29.97 in 1.5 mi East 15.0 mph - N/A Snow Light Snow
9:00 PM 32.0 °F 21.6 °F 32.0 °F 100% 29.96 in 1.2 mi East 15.0 mph - N/A Snow Light Snow
9:36 PM 32.0 °F 19.8 °F 30.2 °F 93% 29.94 in 4.0 mi East 20.7 mph 27.6 mph N/A Snow Light Snow
10:00 PM 32.0 °F 19.2 °F 28.4 °F 87% 29.94 in 3.0 mi East 23.0 mph - N/A Snow Light Snow
11:00 PM 30.2 °F 17.1 °F 28.4 °F 93% 29.93 in 3.0 mi East 21.9 mph - N/A Snow Light Snow